Location: Arrakis Observatory
(44.1122°N, 95.7153°W)
Time: 23:34:31
(UTC-05:00)

Daily predictions for brighter satellites

Satellite Brightness Start Highest point End
(mag) Time Altitude Azimuth Time Altitude Azimuth Time Altitude Azimuth
COSMOS 2455 3.9 21:21:59 10° SSE 21:26:36 24° ESE 21:31:14 10° NE
Cosmos 1743 3.4 21:25:27 10° NNW 21:29:13 56° W 21:32:59 10° S
Cosmos 2228 3.2 21:24:58 10° N 21:29:20 60° E 21:33:42 10° SSE
APEX 3.6 21:27:27 10° NNW 21:31:23 78° ENE 21:36:31 10° SSE
Lacrosse 5 rocket 2.0 21:27:53 10° WSW 21:31:42 57° NW 21:35:44 10° NE
Cosmos 1025 Rocket 4.0 21:29:00 10° SSW 21:33:17 52° WNW 21:37:34 10° N
ATLAS 3B R/B 4.2 21:31:57 10° SE 21:36:51 19° ESE 21:41:43 10° ENE
Cosmos 2251 Rocket 4.2 21:33:43 10° SSW 21:38:58 61° WNW 21:44:18 10° NNE
Meteor 1-23 Rocket 4.3 21:33:40 10° S 21:39:19 89° E 21:45:05 10° N
Cosmos 1892 Rocket 4.2 21:37:19 10° SSW 21:41:43 62° W 21:46:10 10° N
Cosmos 1891 Rocket 4.5 21:37:01 10° N 21:43:12 74° E 21:49:14 10° SSE
ERS-1 Rocket 3.4 21:39:33 10° S 21:44:31 66° WSW 21:49:32 10° NNW
USA 186 4.2 21:43:50 10° SW 21:45:52 18° W 21:47:49 10° NW
Nimbus 7 Rocket 4.4 21:40:37 10° NNE 21:46:34 66° ESE 21:52:25 10° S
Cosmos 1603 3.9 21:42:21 10° S 21:47:42 48° ESE 21:53:03 10° NE
Abrixas rocket 3.2 21:45:19 10° WNW 21:48:32 38° SSW 21:51:25 12° SE
Envisat 3.0 21:43:32 10° SSE 21:48:35 73° ENE 21:53:40 10° N
Meteor 2-9 Rocket 4.4 21:45:05 10° NNW 21:50:46 78° W 21:56:33 10° S
USA 234 3.4 21:46:04 10° ESE 21:52:35 73° NE 21:59:09 10° NW
Okean 2 4.0 21:51:00 10° SSW 21:55:08 60° W 21:59:18 10° N
Meteor 2-4 Rocket 4.3 21:53:07 10° SSW 21:58:56 65° WNW 22:04:51 10° N
Lacrosse 4 Rocket 3.4 21:59:12 10° ESE 21:59:12 10° ESE 21:59:32 10° E
UNK 4.3 21:58:27 10° NNE 22:03:47 58° ESE 22:09:21 10° S
YAOGAN 6 3.2 22:02:20 15° SE 22:05:10 44° ENE 22:08:45 10° N
ISS -2.2 22:04:16 10° S 22:06:54 23° SE 22:09:34 10° E
PSLV R/B 4.2 22:03:45 10° SW 22:06:55 31° SSE 22:09:23 14° ESE
BREEZE-M DEB (TANK) 2.4 22:03:12 10° SW 22:07:15 46° SSE 22:09:20 10° ENE
CZ-2C R/B 3.6 22:09:26 10° WSW 22:10:14 11° W 22:11:02 10° WNW
Tsikada Rocket 4.0 22:03:50 10° S 22:10:15 80° E 22:16:39 10° N
Cosmos 1943 3.9 22:07:23 10° SSE 22:12:20 32° ESE 22:17:19 10° NE
Cosmos 1238 4.3 22:11:52 14° S 22:14:24 55° E 22:17:22 10° NNE
Cosmos 1461 3.5 22:11:16 10° NW 22:15:28 51° WSW 22:18:39 15° S
Cosmos 1943 Rocket 3.8 22:15:04 10° N 22:19:19 22° NE 22:23:31 10° E
SPOT 5 3.0 22:15:36 10° S 22:19:58 62° WSW 22:24:17 10° NNW
MetOp-A 4.2 22:16:40 12° SSE 22:21:38 85° WSW 22:27:02 10° NNW
CZ-4 SHROUD 4.4 22:19:33 10° S 22:22:31 39° W 22:25:31 10° NNW
Cosmos 1992 Rocket 4.1 22:19:21 10° NNW 22:24:34 67° ENE 22:28:11 20° SSE
Cosmos 1602 Rocket 4.2 22:20:21 10° SSW 22:24:46 59° W 22:29:12 10° N
Aureole 2 Rocket 4.5 22:25:48 10° SW 22:29:18 32° WNW 22:32:32 10° N
Cosmos 1825 Rocket 3.8 22:26:47 18° SSE 22:29:50 51° E 22:34:09 10° NNE
SL-08 RB Rocket 4.0 22:27:20 21° SE 22:30:14 55° ENE 22:34:40 10° N
H-2A R/B 2.9 22:28:49 19° ESE 22:31:43 34° ENE 22:36:16 10° N
Cosmos 1812 Rocket 4.0 22:29:32 10° NNW 22:33:52 59° W 22:37:38 13° S
Lacrosse 5 4.5 22:30:07 10° WNW 22:33:57 21° NNW 22:37:47 10° NE
SPOT 1/Viking Rocket 3.6 22:36:21 18° S 22:40:17 80° WSW 22:45:28 10° NNW
Geosat 4.3 22:35:59 10° NE 22:40:50 46° ESE 22:44:24 17° S
Terra 2.6 22:39:33 22° ESE 22:42:00 38° ENE 22:46:25 10° N
Cosmos 1190 Rocket 4.2 22:40:31 18° S 22:44:20 52° ESE 22:49:30 10° NNE
USA 245 4.4 22:43:14 16° S 22:48:06 70° WSW 22:53:20 10° NNW
Cosmos 1634 Rocket 3.9 22:43:03 10° N 22:49:15 88° E 22:53:37 21° S
CZ-4C R/B 3.4 22:48:46 29° SSE 22:50:55 78° ENE 22:55:01 10° N
SeaSat 1 3.7 22:47:09 13° S 22:50:56 33° WSW 22:55:24 10° NW
Atlas Centaur 2 3.8 22:48:23 10° SW 22:55:05 30° S 22:58:14 24° SE
Cosmos 2369 Rocket 2.2 22:49:24 10° NNW 22:55:07 88° ENE 22:58:16 27° SSE
ARGOS 3.3 22:52:05 21° S 22:55:45 74° WSW 23:01:13 10° NNW
CZ-4B R/B 4.0 22:51:33 10° N 22:56:32 60° WNW 23:01:36 10° SSW
Cosmos 676 Rocket 4.4 22:58:33 29° SSE 23:00:46 44° ESE 23:05:49 10° NNE
Cosmos 1805 4.5 23:03:55 10° NNE 23:07:21 28° ENE 23:08:04 26° E
NOAA 11 4.4 23:04:33 23° S 23:07:57 64° WSW 23:13:22 10° NNW
Cosmos 1953 3.1 23:05:36 10° N 23:09:18 36° ENE 23:10:05 32° ESE
Cosmos 489 Rocket 4.5 23:04:44 19° S 23:09:26 69° ESE 23:15:46 10° NNE
Lacrosse 5 rocket 4.3 23:08:56 10° WNW 23:11:45 18° NNW 23:14:40 10° NNE
COSMOS 2455 3.3 23:06:06 10° SW 23:12:03 62° NW 23:18:03 10° NNE
Cosmos 2279 Rocket 4.0 23:07:30 10° N 23:13:47 80° E 23:17:07 30° SSE
Cosmos 1953 Rocket 3.7 23:12:41 25° SSW 23:15:13 70° W 23:19:40 10° N
Cosmos 2263 4.1 23:13:20 10° NNW 23:18:58 84° WSW 23:21:29 35° SSE
Meteor 1-22 Rocket 4.4 23:13:38 10° NNW 23:19:09 67° W 23:22:21 27° S
IGS 5A 3.4 23:20:24 46° SSE 23:21:35 84° ENE 23:25:46 10° NNW
COSMOS 2406 4.0 23:21:07 29° ESE 23:21:57 31° ESE 23:26:54 10° NE
Cosmos 2084 4.4 23:20:17 10° NNW 23:24:09 38° NE 23:25:44 28° E
ATLAS 3B R/B 2.9 23:18:56 10° SSW 23:26:39 83° SE 23:34:11 10° NE
SL-27 R/B 3.6 23:29:06 30° ENE 23:29:06 30° ENE 23:31:19 10° NE
Cosmos 2180 Rocket 4.5 23:25:28 10° N 23:31:46 89° W 23:34:48 33° S
Cosmos 407 Rocket 3.6 23:29:34 21° SSW 23:33:10 76° WNW 23:38:25 10° NNE
Cosmos 1346 Rocket 3.8 23:31:31 23° SW 23:33:31 42° WNW 23:37:17 10° N
Cosmos-2242 3.0 23:29:45 10° N 23:34:11 87° E 23:35:15 52° SSE
USA 234 4.1 23:33:09 26° S 23:35:54 36° SW 23:41:52 10° WNW
Lacrosse 4 Rocket 1.4 23:35:28 33° SW 23:37:12 74° WNW 23:41:19 10° NNE
Kosmos-1675 4.0 23:36:17 31° SW 23:37:56 87° NW 23:48:56 10° NE
ISS -2.6 23:39:58 10° WSW 23:43:10 52° NNW 23:46:23 10° NE
Cosmos 2208 Rocket 4.3 23:39:27 10° NNW 23:44:34 56° ENE 23:46:06 41° ESE
Cosmos 1842 3.6 23:48:54 46° SW 23:49:46 59° W 23:53:40 10° N
CZ-4B R/B 3.8 23:50:52 16° ENE 23:51:08 16° ENE 23:53:30 10° NNE
Cosmos 1544 3.7 23:48:27 10° N 23:52:01 47° ENE 23:52:01 47° ENE
Cosmos 1954 Rocket 4.0 23:49:59 37° SSW 23:52:11 88° WNW 23:57:31 10° NNE
Cosmos 1758 3.4 23:50:14 10° NNW 23:54:20 70° W 23:54:51 61° SW
